Weather History for LHPP - October, 2012

Change the Weather History Date:

Friday, October 26, 2012

  Actual Average Record
Temperature  
Mean Temperature 46 °F -  
Max Temperature 55 °F 50 °F - ()
Min Temperature 36 °F 37 °F - ()
Degree Days  
Heating Degree Days 20    
Moisture  
Dew Point 45 °F    
Average Humidity 89    
Maximum Humidity 100    
Minimum Humidity 71    
Precipitation  
Precipitation 0.00 in 0.07 in - ()
Sea Level Pressure  
Sea Level Pressure 29.83 in    
Wind  
Wind Speed 4 mph ()    
Max Wind Speed 12 mph    
Max Gust Speed -    
Visibility 2.0 miles    
Events Fog    
T = Trace of Precipitation, MM = Missing Value Source: Averaged Metar Reports

Daily Weather History Graph

Daily Weather History Graph

Search for Another Location

Airport or City:

Trip Planner

Search our weather history database for the weather conditions in past years. The results will help you decide how hot, cold, wet, or windy it might be!

Date:

Astronomy

Oct. 26, 2012 Rise Set
Actual Time 7:19 AM CEST 5:41 PM CEST
Civil Twilight 6:48 AM CEST 6:12 PM CEST
Nautical Twilight 6:13 AM CEST 6:47 PM CEST
Astronomical Twilight 5:38 AM CEST 7:22 PM CEST
Moon 3:56 PM CEST (10/26) 3:48 AM CEST (10/26)
Length of Visible Light 11h 24m
Length of Day
10h 22m
Waxing Gibbous, 89% of the Moon is Illuminated
Oct 26
Waxing Gibbous
Oct 29
Full
Nov 7
Last Quarter
Nov 13
New
Nov 20
First Quarter

Hourly Weather History & Observations

Time (CEST) Temp. Windchill Dew Point Humidity Pressure Visibility Wind Dir Wind Speed Gust Speed Precip Events Conditions
12:45 AM 44.6 °F - 42.8 °F 93% 29.92 in 4.3 mi North 1.2 mph - N/A   Unknown
1:45 AM 42.8 °F - 42.8 °F 100% 29.89 in 4.3 mi Calm Calm - N/A   Unknown
2:00 AM 44 °F - 42 °F 89% 29.92 in 4 mi Calm Calm - -   Partly Cloudy
2:45 AM 41.0 °F 36.4 °F 39.2 °F 93% 29.89 in 4.3 mi South 6.9 mph - N/A   Unknown
3:45 AM 41.0 °F - 41.0 °F 100% 29.89 in 3.7 mi NW 2.3 mph - N/A   Unknown
4:45 AM 42.8 °F 40.1 °F 41.0 °F 93% 29.89 in 3.7 mi West 4.6 mph - N/A   Unknown
5:45 AM 42.8 °F - 41.0 °F 93% 29.89 in 3.7 mi West 2.3 mph - N/A   Unknown
6:15 AM 41.0 °F - 41.0 °F 100% 29.89 in 3.7 mi Calm Calm - N/A   Unknown
6:39 AM 41.0 °F - 41.0 °F 100% 29.92 in 1.9 mi SSW 2.3 mph - N/A   Mist
6:45 AM 41.0 °F - 41.0 °F 100% 29.89 in 1.9 mi SW 2.3 mph - N/A   Mist
7:00 AM - - - N/A% - 0.1 mi Variable 3.5 mph - N/A Fog Light Fog
7:10 AM 37.4 °F - 37.4 °F 100% 29.92 in 0.1 mi East 2.3 mph - N/A Fog Fog
7:15 AM 37.4 °F - 35.6 °F 93% 29.89 in 0.1 mi East 2.3 mph - N/A Fog Fog
7:45 AM 37.4 °F 33.8 °F 37.4 °F 100% 29.89 in 0.1 mi NE 4.6 mph - N/A Fog Fog
8:00 AM 38 °F - 37 °F 97% 29.91 in 0 mi NE 4.5 mph - - Fog Partial Fog
8:15 AM 41.0 °F 39.0 °F 39.2 °F 93% 29.89 in 0.3 mi ENE 3.5 mph - N/A Fog Fog
8:29 AM 42.8 °F - 41.0 °F 93% 29.92 in 0.7 mi East 2.3 mph - N/A   Mist
8:45 AM 42.8 °F - 42.8 °F 100% 29.89 in 0.7 mi East 2.3 mph - N/A   Mist
9:15 AM 44.6 °F - 42.8 °F 93% 29.89 in 0.9 mi ENE 2.3 mph - N/A   Mist
9:45 AM 46.4 °F 44.3 °F 44.6 °F 93% 29.89 in 1.2 mi East 4.6 mph - N/A   Partly Cloudy
10:00 AM - - - N/A% - 1.9 mi Variable 3.5 mph - N/A   Mostly Cloudy
10:15 AM 48.2 °F - 46.4 °F 93% 29.89 in 1.2 mi East 4.6 mph - N/A   Partly Cloudy
10:45 AM 50.0 °F - 46.4 °F 87% 29.89 in 1.2 mi East 5.8 mph - N/A   Partly Cloudy
11:15 AM 51.8 °F - 50.0 °F 94% 29.89 in 1.2 mi East 5.8 mph - N/A   Partly Cloudy
11:45 AM 53.6 °F - 48.2 °F 82% 29.89 in 1.9 mi East 6.9 mph - N/A   Mist
12:15 PM 55.4 °F - 48.2 °F 77% 29.89 in 1.9 mi ESE 6.9 mph - N/A   Mist
12:45 PM 55.4 °F - 48.2 °F 77% 29.86 in 1.9 mi ESE 8.1 mph - N/A   Mostly Cloudy
1:00 PM - - - N/A% - 2.2 mi ESE 8.1 mph - N/A   Mostly Cloudy
1:15 PM 55.4 °F - 48.2 °F 77% 29.86 in 1.9 mi ESE 8.1 mph - N/A   Mostly Cloudy
1:45 PM 55.4 °F - 48.2 °F 77% 29.86 in 2.5 mi SE 8.1 mph - N/A   Overcast
2:00 PM 55 °F - 48 °F 71% 29.85 in 2 mi SE 8.9 mph - -   Mist
2:15 PM 53.6 °F - 48.2 °F 82% 29.83 in 2.5 mi ESE 10.4 mph - N/A   Mostly Cloudy
2:45 PM 53.6 °F - 48.2 °F 82% 29.83 in 2.5 mi SE 11.5 mph - N/A   Mostly Cloudy
3:15 PM 53.6 °F - 48.2 °F 82% 29.83 in 2.5 mi SE 8.1 mph - N/A   Mostly Cloudy
3:45 PM 53.6 °F - 48.2 °F 82% 29.80 in 1.9 mi SE 9.2 mph - N/A   Mostly Cloudy
4:00 PM - - - N/A% - 1.9 mi SE 9.2 mph - N/A   Mist
4:15 PM 53.6 °F - 48.2 °F 82% 29.80 in 1.9 mi SE 4.6 mph - N/A   Mostly Cloudy
4:45 PM 53.6 °F - 48.2 °F 82% 29.80 in 1.9 mi East 4.6 mph - N/A   Overcast
5:15 PM 51.8 °F - 48.2 °F 88% 29.77 in 1.2 mi ESE 6.9 mph - N/A   Overcast
5:45 PM 51.8 °F - 48.2 °F 88% 29.77 in 1.2 mi ESE 5.8 mph - N/A   Overcast
6:15 PM 51.8 °F - 48.2 °F 88% 29.74 in 1.2 mi East 5.8 mph - N/A   Overcast
6:45 PM 51.8 °F - 48.2 °F 88% 29.74 in 1.2 mi ESE 6.9 mph - N/A   Mostly Cloudy
7:15 PM 51.8 °F - 48.2 °F 88% 29.74 in 1.2 mi East 5.8 mph - N/A   Mostly Cloudy
7:45 PM 53.6 °F - 48.2 °F 82% 29.74 in 1.9 mi ESE 5.8 mph - N/A   Mostly Cloudy
8:00 PM 53 °F - 49 °F 81% 29.73 in 2 mi ESE 6.7 mph - -   Mist
8:15 PM 53.6 °F - 48.2 °F 82% 29.71 in 2.5 mi East 5.8 mph - N/A   Mostly Cloudy
8:45 PM 51.8 °F - 48.2 °F 88% 29.71 in 2.5 mi East 5.8 mph - N/A   Mostly Cloudy
9:15 PM 51.8 °F - 48.2 °F 88% 29.68 in 2.5 mi ESE 6.9 mph - N/A   Mostly Cloudy
9:45 PM 50.0 °F - 46.4 °F 87% 29.68 in 2.5 mi East 6.9 mph - N/A   Mostly Cloudy
10:45 PM 50.0 °F - 46.4 °F 87% 29.65 in 2.5 mi East 4.6 mph - N/A   Mostly Cloudy
11:45 PM 50.0 °F - 46.4 °F 87% 29.62 in 2.5 mi East 5.8 mph - N/A   Mostly Cloudy